This demonstration page uses our WeatherBlox Daily Observations layout. Learn more.

Left ArrowRight Arrow

Hourly Observations for February 11, 2023

Temp ( °F °C ) Dew Point ( °F °C ) Humidity (%) Winds ( mph kmh ) Pressure ( in mb ) Visibility ( mi km ) Precip ( " mm )
12:54 am 00:54 Clear 20 -6.7 15 -9.4 81 81 Calm 30.42 1030 10 16 0.00 0.00
1:54 am 01:54 Clear 21 -6.1 17 -8.3 84 84 SSE 5 7 30.42 1030 10 16 0.00 0.00
2:54 am 02:54 Clear 19 -7.2 17 -8.3 92 92 SSE 3 6 30.42 1030 10 16 0.00 0.00
3:54 am 03:54 Clear 21 -6.1 17 -8.3 84 84 S 3 6 30.42 1030 10 16 0.00 0.00
4:54 am 04:54 Clear 21 -6.1 17 -8.3 84 84 S 5 7 30.42 1030 10 16 0.00 0.00
5:54 am 05:54 Clear 20 -6.7 16 -8.9 84 84 SSW 7 11 30.42 1030 10 16 0.00 0.00
6:54 am 06:54 Clear 21 -6.1 17 -8.3 84 84 S 5 7 30.42 1030 10 16 0.00 0.00
7:54 am 07:54 Sunny 24 -4.4 19 -7.2 81 81 S 5 7 30.41 1030 10 16 0.00 0.00
8:54 am 08:54 Sunny 29 -1.7 23 -5 78 78 SSW 9 15 30.41 1030 10 16 0.00 0.00
9:54 am 09:54 Sunny 33 0.6 22 -5.6 63 63 SSW 9 15 30.40 1029 10 16 0.00 0.00
10:54 am 10:54 Sunny 40 4.4 18 -7.8 41 41 SW 14 22 30.37 1028 10 16 0.00 0.00
11:54 am 11:54 Sunny 44 6.7 18 -7.8 35 35 SW 14 22 30.34 1027 10 16 0.00 0.00
12:54 pm 12:54 Sunny 45 7.2 17 -8.3 32 32 SW 14 22 30.31 1026 10 16 0.00 0.00
1:54 pm 13:54 Sunny 45 7.2 18 -7.8 33 33 SW 14 22 30.28 1025 10 16 0.00 0.00
2:54 pm 14:54 Sunny 46 7.8 20 -6.7 35 35 SSW 15 24 30.27 1025 10 16 0.00 0.00
3:54 pm 15:54 Mostly Sunny 44 6.7 22 -5.6 41 41 SSW 12 19 30.24 1024 10 16 0.00 0.00
4:54 pm 16:54 Mostly Sunny 41 5 25 -3.9 52 52 SSW 9 15 30.24 1024 10 16 0.00 0.00
5:54 pm 17:54 Mostly Clear 35 1.7 24 -4.4 64 64 S 8 13 30.24 1024 10 16 0.00 0.00
6:54 pm 18:54 Clear 33 0.6 24 -4.4 69 69 SSW 7 11 30.23 1024 10 16 0.00 0.00
7:54 pm 19:54 Clear 34 1.1 24 -4.4 67 67 S 7 11 30.22 1023 10 16 0.00 0.00
8:54 pm 20:54 Clear 33 0.6 24 -4.4 69 69 S 5 7 30.22 1023 10 16 0.00 0.00
9:54 pm 21:54 Clear 31 -0.6 23 -5 72 72 S 6 9 30.20 1023 10 16 0.00 0.00
10:54 pm 22:54 Clear 27 -2.8 21 -6.1 78 78 S 3 6 30.18 1022 10 16 0.00 0.00
11:54 pm 23:54 Clear 29 -1.7 22 -5.6 75 75 SSE 3 6 30.17 1022 10 16 0.00 0.00

Powered by AerisWeather